Temperature
15 16 16 16 19 20 19 19 19 18 18 17 16 17 18 18 18 18 14 14 14 14 14 14 14 15 15 15 15 15 15 15 15 15 15 15 15 15 15 15 15 15 15 15 15 15 15 15 15
15 15 16 17 20 20 19 19 18 17 17 15 15 16 17 16 14 13 13 13 13 14 14 14 14 14 14 15 15 15 15 15 15 15 15 15 15 15 15 15 15 15 15 15 15 15 15 15 15
14 15 15 18 19 20 19 18 17 16 15 15 15 15 15 15 13 12 13 13 13 13 13 14 14 14 14 14 15 15 15 15 15 15 15 15 15 15 14 15 15 15 15 15 15 15 15 15 15
14 14 15 18 17 17 17 17 16 16 15 14 15 15 13 12 12 12 13 13 13 13 13 14 14 14 14 14 14 14 15 15 15 15 15 15 15 14 14 14 14 15 15 15 15 15 15 15 15
13 15 17 16 16 16 16 15 14 16 15 14 15 15 13 11 12 12 13 13 13 12 13 13 13 14 14 14 14 14 14 14 15 15 15 15 14 14 14 14 14 14 14 15 15 14 14 14 14
13 15 17 17 16 15 15 13 14 15 15 14 14 14 13 11 11 12 12 12 12 12 12 13 13 13 13 13 14 14 14 14 14 14 14 14 14 14 14 14 14 14 14 14 14 14 14 14 14
14 15 16 16 15 15 14 12 13 14 14 12 12 14 12 11 11 11 11 11 11 11 12 12 12 13 13 13 13 13 13 14 14 14 14 14 14 14 14 14 14 14 14 14 14 14 14 14 14
11 14 14 14 14 14 12 11 10 11 12 10 10 12 11 10 10 10 10 10 11 11 11 12 12 12 12 12 13 13 13 13 13 14 14 14 14 14 14 14 14 14 14 14 14 14 14 14 14
10 13 13 13 13 12 10 10 9 9 9 9 9 9 8 9 9 10 10 10 10 11 11 11 11 11 12 12 12 12 13 13 13 13 13 13 13 13 13 13 13 13 13 13 13 13 13 13 13
10 12 11 11 11 10 9 9 9 9 9 8 8 8 8 8 9 9 9 10 10 10 10 11 11 11 11 11 11 12 12 12 12 12 12 12 13 13 13 13 13 13 13 13 13 13 13 13 13
9 9 9 8 8 8 8 8 7 9 9 8 7 6 7 7 8 8 8 9 9 9 10 10 10 10 11 11 11 11 11 11 12 12 12 12 12 12 12 12 12 12 12 12 12 12 12 12 13
8 7 7 7 6 6 7 7 7 6 7 6 5 5 6 6 7 7 7 8 8 9 9 10 10 10 10 10 10 11 11 11 11 11 11 12 12 12 12 12 12 12 12 12 12 12 12 12 12
7 6 5 5 5 5 5 5 6 5 5 5 5 5 5 5 6 6 7 7 7 8 9 9 9 9 9 10 10 10 10 11 11 11 11 11 11 12 12 12 12 12 12 12 12 12 12 12 12
6 5 5 5 5 5 5 5 5 5 4 4 4 4 4 5 5 6 6 7 7 7 8 8 9 9 9 9 9 10 10 10 10 11 11 11 11 11 11 11 12 12 12 12 11 11 12 12 12
5 6 6 5 5 5 5 6 5 4 4 4 4 4 4 4 5 5 5 6 6 7 7 8 8 8 8 9 9 9 10 10 10 10 10 10 11 11 11 11 11 11 11 11 11 11 11 11 11
6 7 7 6 5 5 6 7 6 4 4 4 4 4 4 4 4 4 5 5 6 6 6 7 7 8 8 8 8 9 9 9 10 10 10 10 10 10 10 11 11 11 11 11 11 11 11 11 11
7 7 7 6 5 5 6 6 6 4 4 4 4 3 3 3 4 4 4 5 5 6 6 6 7 7 7 7 8 8 8 9 9 9 9 10 10 10 10 10 10 10 10 10 11 11 11 11 11
7 7 6 6 5 5 5 5 5 4 3 3 3 3 3 3 3 3 4 4 5 5 5 6 6 6 7 7 7 7 8 8 8 8 9 9 9 9 9 10 10 10 10 10 10 10 10 10 10
5 5 5 5 4 4 4 4 4 3 3 3 2 2 2 2 2 3 3 4 4 5 5 5 6 6 6 6 7 7 7 7 8 8 8 8 9 9 9 9 9 9 9 10 10 10 10 10 10
4 4 5 4 4 4 4 4 4 3 2 2 1 1 1 1 2 2 3 3 4 4 4 5 5 5 6 6 6 6 6 7 7 7 7 8 8 8 8 9 9 9 9 9 9 9 9 9 9
4 4 4 4 3 3 3 4 4 3 2 1 1 1 1 1 1 1 2 2 3 3 4 4 4 5 5 5 5 6 6 6 6 6 7 7 8 8 8 8 8 9 9 9 9 9 9 9 9
4 3 3 3 3 4 3 5 5 3 2 2 1 0 0 0 0 1 1 2 2 2 3 3 4 4 5 5 5 5 5 5 6 6 6 7 7 7 7 8 8 8 8 8 9 9 9 9 9
2 2 2 3 3 3 3 3 5 2 2 2 1 0 0 -0 0 0 1 1 1 2 2 3 3 4 4 4 4 4 5 5 5 5 6 6 6 7 7 7 7 8 8 8 8 8 8 9 9
1 2 3 3 3 3 3 3 4 3 2 2 1 0 -0 -1 -0 -0 0 1 1 1 2 2 3 3 3 4 4 4 4 4 4 5 5 5 6 6 6 7 7 7 8 8 8 8 8 8 8
2 3 4 4 4 4 2 2 3 2 0 0 -0 -1 -1 -1 -1 -0 -0 0 0 1 1 1 2 2 3 3 3 3 3 3 4 4 4 4 5 5 6 6 6 7 7 7 8 8 8 8 8
1 2 3 4 5 5 2 2 3 0 -1 -2 -2 -2 -2 -1 -1 -1 -1 -1 -0 0 0 1 1 2 2 2 3 3 3 3 3 3 3 4 4 5 5 6 6 6 7 7 7 7 7 7 8
1 1 0 1 1 2 3 2 1 0 -1 -1 -2 -2 -2 -2 -2 -2 -1 -1 -1 -0 -0 0 1 1 1 2 2 2 3 3 3 3 3 3 4 4 5 5 5 6 6 6 6 7 7 7 7
-0 -0 0 1 2 3 3 3 2 0 -0 -1 -1 -2 -2 -3 -2 -2 -2 -2 -1 -1 -0 -0 0 1 1 1 2 2 2 2 2 3 3 3 3 4 4 4 5 5 6 6 6 6 7 7 7
-1 -1 -1 0 0 2 3 3 1 -0 -1 -1 -2 -2 -3 -3 -3 -3 -2 -2 -2 -1 -1 -1 -0 0 0 1 1 2 2 2 2 2 2 2 3 3 4 4 4 4 5 5 6 6 6 6 6
-2 -2 -1 0 -0 -1 1 2 -0 -1 -2 -2 -2 -3 -3 -3 -3 -3 -3 -2 -2 -2 -1 -1 -1 -1 -0 0 0 1 1 1 2 2 2 2 2 3 3 3 4 4 4 5 5 5 6 6 6
Wind_Speed
10 7 3 2 4 4 9 6 4 3 3 1 1 1 2 2 0 1 3 1 1 3 5 5 5 6 7 8 9 10 10 10 10 10 11 11 11 12 12 12 13 14 14 14 15 15 15 15 16
7 4 1 2 6 9 8 7 6 3 1 1 2 2 2 1 2 3 2 1 1 4 5 6 6 6 7 8 9 10 9 10 10 10 10 10 11 11 11 12 13 13 13 14 14 14 15 15 15
4 2 1 3 6 10 9 3 5 3 2 2 2 1 1 0 1 2 2 1 3 4 5 6 6 6 7 8 9 9 9 10 9 9 9 10 10 11 11 12 12 13 13 14 13 13 14 14 14
2 1 1 4 10 9 7 2 1 4 3 1 2 2 2 2 3 3 1 3 4 4 5 6 6 6 7 8 9 9 9 10 9 9 9 10 10 11 11 11 12 12 13 13 13 13 13 13 14
0 2 4 7 11 8 4 2 2 4 4 2 3 2 2 2 4 3 3 4 5 4 5 6 6 6 7 8 8 8 9 9 9 8 9 9 10 11 11 12 12 12 12 12 12 12 13 13 13
1 2 6 11 12 8 4 3 3 3 3 1 2 3 1 3 6 3 2 3 4 4 5 6 6 6 7 7 8 8 8 8 8 8 8 8 9 10 11 11 11 11 12 12 11 12 13 12 12
2 3 6 9 9 8 4 2 3 4 4 2 2 3 2 4 7 3 2 3 4 4 4 5 6 6 6 6 6 8 8 8 8 8 8 8 8 10 10 11 10 10 11 11 11 12 12 12 12
1 2 5 7 8 7 2 2 1 3 3 2 1 2 2 5 6 2 2 3 3 4 4 3 4 5 5 5 6 7 8 8 8 8 8 9 9 9 10 10 9 10 10 10 11 12 12 11 11
1 3 6 7 6 4 1 2 1 1 1 0 1 2 5 5 3 1 2 2 2 2 2 2 2 3 4 4 5 6 7 8 8 8 9 9 7 7 8 9 9 9 9 10 10 11 11 11 10
1 4 6 2 2 2 1 2 1 1 1 2 2 5 6 4 3 2 2 1 1 1 1 1 1 1 3 3 5 5 5 6 7 7 7 6 6 6 7 9 9 9 9 10 10 11 10 8 8
1 2 2 1 2 1 2 1 1 3 4 4 4 5 6 4 3 1 0 0 1 1 1 2 2 1 1 2 3 3 3 4 5 6 5 5 5 5 6 8 8 8 8 8 9 8 6 6 5
2 1 1 1 2 2 2 2 2 3 4 4 4 3 4 3 2 2 2 2 2 1 1 1 2 2 1 1 2 2 3 3 3 5 6 5 4 4 5 5 6 6 5 6 6 5 6 6 6
2 2 1 1 1 1 1 2 3 4 4 3 3 2 3 4 4 3 2 2 2 3 2 1 2 1 1 1 0 1 2 3 4 5 6 5 4 4 4 5 5 5 5 5 5 5 5 6 6
2 2 1 3 3 2 1 3 4 4 3 3 2 3 3 4 4 4 4 3 3 3 3 2 1 1 1 1 0 1 2 3 4 4 5 6 5 4 4 5 5 5 5 5 5 5 5 5 5
2 2 2 3 3 2 3 5 6 4 3 3 4 4 4 4 4 5 4 4 3 3 3 2 1 1 0 1 1 1 1 2 3 4 5 5 5 5 4 4 5 5 6 6 5 6 5 4 4
2 3 3 1 2 2 4 7 4 3 4 4 4 5 5 5 5 5 5 4 4 3 3 3 2 1 1 1 1 1 1 2 2 3 4 5 6 6 5 4 4 6 6 6 5 5 4 4 4
2 4 5 4 2 3 5 7 4 4 5 5 5 5 5 5 5 5 4 4 4 3 3 3 1 1 1 1 1 1 1 1 2 3 4 4 5 6 6 5 4 5 6 5 5 5 5 5 5
3 4 6 6 3 3 6 9 7 5 5 6 6 5 5 5 6 6 5 4 3 3 3 2 2 1 1 0 1 1 1 1 2 3 4 5 5 5 6 5 6 6 5 5 6 6 5 5 5
3 5 7 7 5 5 7 9 8 5 5 5 5 5 5 6 6 6 5 4 3 3 3 3 2 1 1 1 1 2 2 2 2 2 3 5 5 6 5 4 6 6 5 6 6 6 7 5 6
3 5 6 5 4 5 6 10 9 6 5 4 4 4 5 6 7 7 7 5 4 3 3 4 3 2 1 1 2 3 3 3 3 3 3 4 5 6 5 5 5 6 5 6 7 6 5 4 5
3 5 6 7 7 4 6 7 5 3 2 2 3 5 5 6 7 6 7 7 5 4 5 4 4 4 2 2 2 2 1 2 2 3 3 4 5 6 6 6 5 7 7 7 8 8 8 6 6
5 4 6 6 6 4 3 6 4 2 3 3 4 5 6 6 6 6 7 7 7 6 5 5 5 4 3 2 2 3 3 3 4 3 4 5 5 5 5 6 6 6 7 7 8 8 7 8 7
4 6 6 6 6 5 4 5 4 1 3 4 4 5 5 6 6 6 7 7 7 7 6 5 5 5 4 3 3 4 4 4 4 3 5 5 4 5 6 6 7 6 6 7 8 8 8 8 8
5 4 4 3 3 5 4 5 4 2 4 4 4 5 5 6 7 7 7 7 6 6 6 5 5 5 5 4 4 4 5 5 5 4 4 4 4 4 5 5 6 7 6 7 7 8 9 8 8
3 3 2 2 3 4 1 4 5 3 3 4 5 6 6 6 7 7 8 8 7 7 7 6 6 6 6 5 4 4 5 6 7 6 5 5 4 4 5 5 6 6 7 7 8 8 9 9 9
2 2 2 3 5 5 2 5 3 1 3 4 5 6 6 7 7 7 8 8 7 8 7 7 6 6 6 6 5 4 4 4 5 6 6 6 5 5 6 6 6 7 7 7 7 7 8 8 9
1 1 2 3 4 5 5 4 4 3 4 4 5 6 7 7 8 7 7 7 7 7 8 7 7 7 7 6 5 5 4 5 5 5 5 5 5 5 7 7 6 7 7 7 7 7 9 8 8
2 0 1 2 3 5 5 5 4 5 6 5 5 7 8 8 8 8 7 7 7 7 7 7 7 7 7 6 5 4 5 5 5 4 4 5 5 5 6 6 7 6 6 6 7 7 8 9 8
1 1 2 3 4 4 5 4 2 4 5 6 6 7 8 8 8 8 7 7 7 7 7 7 7 7 6 6 6 5 5 5 4 4 4 4 5 5 6 6 6 6 6 6 6 7 8 9 9
2 3 3 3 4 4 5 5 2 3 5 6 8 8 8 8 7 7 8 7 7 7 7 7 7 7 6 6 6 6 6 5 5 5 5 4 5 5 5 5 6 6 6 7 7 8 9 9 10
Wind_Direction
335 327 301 240 201 210 227 219 215 194 200 214 185 172 171 167 227 54 25 90 97 153 160 158 145 132 133 129 123 117 116 114 120 123 120 120 120 118 115 113 109 107 106 105 103 101 100 98 97
333 320 252 211 220 219 222 222 215 213 194 142 159 164 157 156 17 15 14 71 132 149 154 155 135 127 128 127 125 122 119 117 115 121 123 121 121 120 117 114 110 107 106 105 104 104 102 101 99
331 333 214 190 219 227 217 192 220 212 182 170 160 147 181 41 15 4 7 138 136 135 145 132 115 126 124 125 122 123 123 119 116 116 122 122 121 119 119 114 110 109 108 106 106 107 105 104 102
300 174 186 212 219 229 234 219 215 197 178 193 175 138 123 39 3 1 79 132 132 126 129 127 112 110 117 123 125 124 126 123 118 115 116 120 119 116 114 114 113 111 111 110 109 109 109 108 105
351 198 199 216 229 227 234 270 238 209 192 187 194 182 150 58 19 44 123 138 132 128 123 130 116 109 110 116 124 126 123 123 121 118 113 115 116 115 114 112 115 116 115 114 114 114 111 111 108
166 202 215 224 227 222 226 265 234 218 209 203 215 216 173 42 20 32 121 136 126 120 118 127 117 110 107 112 116 126 127 125 126 121 117 111 117 118 117 116 112 116 118 117 117 118 116 112 110
199 198 224 228 232 230 231 255 244 233 223 247 282 228 174 17 0 355 129 129 119 108 104 121 127 119 113 114 116 124 128 127 128 124 117 114 113 121 118 116 116 115 118 120 120 120 119 114 112
327 186 219 226 228 232 229 218 276 276 245 302 292 244 269 334 337 335 133 123 116 106 98 103 129 126 128 131 120 117 128 128 127 124 118 119 119 125 124 120 116 117 115 119 119 119 118 114 112
253 211 226 226 226 225 202 206 288 318 261 313 331 337 338 342 353 50 110 92 95 94 90 81 102 126 132 140 133 125 128 130 129 127 123 130 135 137 139 123 116 117 119 119 121 119 116 115 111
224 216 230 258 256 216 196 229 289 237 241 298 308 347 358 11 33 67 77 93 95 85 85 60 77 111 130 136 144 146 139 152 149 142 142 147 146 141 139 125 118 117 119 119 119 124 127 132 126
115 213 229 298 335 266 243 251 291 232 255 275 288 322 342 357 11 37 76 105 204 207 44 30 26 56 134 131 145 151 148 160 162 152 151 150 143 141 144 139 131 129 132 131 131 143 144 141 134
157 206 260 281 337 292 265 245 238 264 264 292 289 301 320 322 334 330 320 310 321 309 348 7 15 11 9 147 153 155 151 160 156 166 160 155 152 156 155 156 154 153 152 150 152 147 146 141 139
200 218 273 312 351 2 289 242 253 272 284 292 278 282 305 319 314 313 297 299 318 336 328 336 14 18 357 5 156 170 169 167 168 166 169 167 166 166 164 164 165 164 160 161 158 154 149 145 139
153 168 275 315 296 282 275 270 256 268 278 258 264 272 286 301 312 318 320 308 303 308 320 325 342 16 351 347 286 211 191 181 177 171 175 176 173 172 174 174 170 168 167 166 165 161 156 149 142
185 221 266 291 275 246 242 263 250 255 252 250 267 278 287 293 308 307 310 303 291 293 307 308 304 355 335 314 293 229 216 195 185 181 180 182 179 181 176 183 176 170 170 166 161 159 153 148 144
207 219 249 284 279 257 245 258 254 243 244 259 269 276 280 285 295 299 305 308 304 299 306 301 316 293 266 303 310 249 219 214 200 185 187 188 187 186 183 183 182 176 172 168 163 163 157 152 153
209 245 261 275 297 263 238 260 272 251 256 266 278 283 286 293 299 301 304 306 303 301 292 291 291 268 251 287 328 286 210 230 218 192 191 194 193 193 194 190 182 179 177 173 168 165 163 157 151
266 268 271 275 296 268 252 260 278 273 263 268 282 291 294 298 303 308 310 309 301 305 296 282 257 278 258 252 330 290 220 274 234 207 203 196 198 201 202 194 187 180 181 178 174 166 162 160 150
271 264 279 286 295 282 259 271 283 283 273 275 283 296 307 307 315 319 319 323 324 327 319 290 263 263 258 191 240 230 227 246 244 233 213 206 202 204 207 199 193 187 187 187 181 166 160 159 153
260 261 278 293 309 293 279 281 282 269 260 265 283 295 306 314 320 331 331 328 329 322 309 304 270 257 247 234 232 224 234 240 245 235 225 220 214 208 208 204 203 198 191 188 185 172 168 170 176
291 274 281 289 311 281 284 272 260 252 230 278 296 298 303 308 312 322 330 332 326 325 319 302 288 266 254 257 237 237 228 242 245 233 227 235 228 220 212 210 212 206 196 193 193 191 185 180 187
296 304 283 277 286 290 305 280 264 253 272 294 295 294 301 309 313 320 327 334 334 327 322 315 303 293 272 239 230 214 226 246 258 247 238 241 234 230 224 216 216 212 204 199 201 200 197 188 187
295 305 282 270 263 273 258 256 277 328 297 300 294 292 301 310 314 318 323 325 326 327 322 318 319 314 306 278 251 230 235 246 261 251 245 236 235 234 233 225 220 220 211 205 206 204 204 200 197
306 295 272 238 233 255 252 241 287 301 306 314 314 314 317 317 320 321 323 324 325 329 326 322 323 319 317 309 284 252 246 251 260 254 248 237 237 240 238 234 231 225 220 211 209 210 209 209 207
338 317 295 273 249 259 274 244 267 326 330 315 319 328 331 331 330 329 332 328 326 328 326 318 318 317 316 311 302 281 263 247 246 247 243 244 239 242 240 244 239 235 228 220 214 212 212 212 210
308 292 285 282 284 292 272 247 265 358 326 315 318 325 334 337 331 330 330 327 327 327 324 317 312 309 310 303 296 291 277 259 249 246 247 243 241 245 243 242 242 242 235 224 219 216 213 214 214
312 245 291 278 285 277 265 266 276 308 316 318 326 332 333 333 327 326 323 325 326 325 324 322 314 309 306 299 299 291 288 277 265 255 253 245 244 252 247 239 240 242 240 230 222 221 214 214 216
343 297 220 238 276 277 277 268 287 311 308 316 319 322 324 325 324 324 322 322 323 321 319 320 318 311 309 303 295 292 291 283 276 266 256 259 258 254 251 242 239 241 241 233 226 225 215 211 213
159 182 241 241 265 275 283 283 340 300 305 309 314 311 314 316 319 321 319 319 319 320 323 322 322 316 311 308 302 305 297 286 275 264 262 264 264 257 246 249 243 239 242 237 235 226 216 212 210
241 244 225 251 253 253 271 280 14 306 312 314 312 315 314 309 312 317 319 321 321 322 325 323 319 314 312 309 301 303 302 291 279 274 272 272 268 261 252 248 249 244 241 237 240 233 222 216 212
Height
1519 1520 1521 1524 1523 1521 1521 1521 1523 1525 1527 1530 1531 1531 1530 1531 1532 1537 1536 1534 1534 1534 1536 1537 1539 1540 1541 1542 1543 1544 1545 1546 1546 1547 1548 1548 1549 1550 1550 1551 1551 1552 1552 1552 1552 1552 1553 1553 1553
1519 1520 1523 1524 1518 1517 1519 1521 1524 1527 1530 1531 1532 1532 1532 1533 1535 1535 1533 1533 1533 1535 1536 1538 1539 1541 1542 1543 1544 1545 1545 1546 1547 1548 1548 1549 1550 1550 1551 1552 1552 1553 1553 1553 1554 1554 1554 1555 1555
1519 1521 1523 1520 1517 1514 1517 1522 1525 1529 1531 1531 1531 1532 1533 1535 1535 1534 1533 1533 1534 1535 1537 1538 1539 1541 1542 1543 1544 1545 1546 1547 1547 1548 1549 1550 1550 1551 1552 1553 1553 1554 1554 1554 1555 1555 1556 1556 1556
1520 1523 1524 1520 1518 1518 1520 1525 1528 1529 1531 1531 1531 1533 1534 1535 1535 1534 1533 1533 1534 1535 1537 1537 1539 1541 1542 1543 1544 1545 1546 1547 1548 1548 1549 1550 1551 1551 1552 1553 1554 1555 1555 1556 1556 1556 1557 1557 1558
1520 1522 1520 1519 1518 1521 1526 1529 1530 1528 1529 1531 1532 1532 1534 1534 1533 1533 1533 1533 1534 1535 1536 1538 1539 1541 1542 1543 1544 1545 1546 1547 1548 1548 1549 1550 1551 1552 1552 1553 1554 1555 1556 1557 1557 1558 1558 1558 1559
1522 1520 1516 1514 1516 1522 1527 1530 1530 1529 1530 1532 1533 1532 1534 1534 1533 1533 1533 1533 1534 1535 1536 1537 1539 1540 1542 1543 1544 1545 1546 1547 1548 1548 1549 1550 1551 1552 1553 1554 1555 1556 1557 1557 1558 1559 1559 1560 1560
1522 1519 1515 1515 1518 1522 1528 1531 1531 1530 1530 1533 1533 1533 1533 1533 1532 1533 1533 1534 1535 1535 1536 1537 1538 1540 1541 1543 1543 1545 1546 1547 1547 1548 1549 1550 1551 1552 1553 1554 1555 1556 1557 1558 1559 1559 1560 1561 1561
1522 1522 1519 1518 1519 1522 1530 1531 1532 1532 1532 1534 1534 1533 1534 1533 1532 1532 1533 1534 1535 1535 1536 1537 1538 1539 1540 1542 1543 1544 1545 1546 1547 1548 1549 1550 1551 1552 1553 1554 1555 1556 1557 1558 1559 1560 1561 1561 1562
1523 1523 1518 1519 1522 1525 1531 1532 1533 1534 1534 1534 1534 1535 1535 1533 1531 1532 1533 1534 1534 1535 1536 1536 1537 1538 1539 1541 1542 1543 1544 1546 1547 1548 1549 1550 1551 1552 1553 1554 1555 1556 1557 1558 1559 1560 1561 1562 1563
1524 1521 1522 1526 1527 1529 1531 1532 1533 1533 1533 1534 1534 1533 1532 1531 1531 1530 1530 1531 1532 1533 1534 1535 1536 1537 1538 1539 1541 1542 1543 1545 1546 1547 1548 1549 1550 1551 1552 1553 1555 1556 1557 1558 1559 1560 1561 1562 1563
1527 1526 1529 1531 1531 1531 1532 1533 1534 1533 1532 1535 1534 1533 1531 1531 1530 1530 1530 1530 1530 1531 1532 1533 1534 1535 1537 1538 1539 1540 1541 1543 1544 1546 1547 1548 1549 1550 1551 1552 1554 1555 1556 1558 1559 1560 1561 1562 1563
1530 1532 1533 1533 1533 1533 1533 1533 1534 1534 1534 1535 1534 1532 1531 1530 1529 1529 1529 1529 1530 1530 1530 1531 1532 1533 1535 1536 1537 1538 1539 1541 1542 1543 1545 1546 1547 1548 1550 1551 1553 1554 1555 1557 1558 1560 1561 1562 1563
1530 1533 1534 1535 1534 1534 1534 1534 1534 1533 1534 1533 1532 1531 1530 1529 1529 1528 1528 1528 1528 1528 1529 1530 1530 1531 1533 1534 1535 1536 1538 1539 1540 1541 1543 1544 1546 1547 1548 1550 1551 1553 1554 1556 1557 1559 1560 1561 1562
1533 1533 1534 1534 1533 1534 1534 1533 1533 1531 1532 1532 1530 1529 1528 1528 1527 1527 1526 1526 1526 1526 1527 1527 1528 1529 1531 1532 1533 1534 1536 1536 1538 1539 1541 1543 1544 1545 1546 1548 1549 1551 1553 1554 1556 1557 1559 1560 1561
1534 1533 1533 1533 1533 1533 1533 1530 1530 1531 1531 1529 1529 1528 1527 1526 1525 1524 1524 1524 1524 1524 1525 1525 1526 1527 1528 1529 1531 1532 1533 1534 1535 1537 1539 1540 1542 1544 1545 1546 1547 1549 1551 1553 1554 1556 1558 1559 1560
1532 1530 1527 1530 1532 1532 1533 1523 1527 1529 1529 1528 1527 1526 1526 1525 1524 1523 1522 1522 1522 1522 1522 1523 1524 1525 1526 1527 1528 1530 1531 1532 1533 1535 1536 1538 1540 1541 1543 1544 1546 1547 1549 1551 1552 1554 1556 1557 1559
1527 1524 1524 1528 1531 1531 1530 1524 1526 1527 1527 1526 1525 1524 1523 1523 1522 1521 1520 1520 1520 1520 1520 1521 1521 1522 1523 1524 1526 1527 1528 1529 1530 1532 1534 1535 1537 1539 1541 1542 1543 1545 1547 1548 1550 1552 1554 1556 1557
1525 1524 1525 1526 1529 1530 1527 1524 1524 1525 1525 1524 1523 1522 1522 1521 1520 1519 1518 1518 1518 1518 1518 1519 1519 1520 1521 1522 1523 1524 1525 1526 1527 1529 1530 1532 1534 1536 1538 1539 1541 1543 1544 1546 1548 1550 1552 1554 1556
1531 1530 1528 1528 1531 1529 1524 1522 1522 1522 1523 1522 1521 1520 1520 1519 1518 1517 1516 1515 1515 1515 1516 1516 1517 1517 1518 1518 1519 1520 1522 1523 1524 1526 1527 1529 1531 1532 1534 1536 1538 1540 1542 1543 1545 1547 1549 1551 1553
1533 1530 1527 1527 1530 1529 1523 1520 1519 1520 1520 1521 1520 1519 1518 1517 1516 1515 1514 1513 1513 1513 1513 1513 1513 1514 1514 1515 1516 1518 1519 1520 1521 1522 1524 1525 1527 1529 1531 1533 1535 1537 1539 1540 1542 1544 1546 1548 1550
1531 1530 1528 1528 1528 1527 1524 1514 1514 1516 1518 1519 1518 1518 1517 1516 1514 1513 1512 1511 1511 1510 1510 1511 1511 1512 1512 1513 1514 1515 1516 1517 1518 1519 1520 1522 1523 1525 1527 1529 1531 1533 1535 1537 1539 1541 1543 1545 1547
1530 1532 1532 1530 1526 1521 1524 1510 1507 1513 1514 1515 1516 1516 1515 1514 1513 1512 1510 1509 1508 1508 1508 1508 1508 1509 1510 1510 1510 1511 1512 1513 1513 1515 1516 1518 1520 1521 1524 1526 1527 1529 1531 1534 1536 1538 1540 1542 1544
1535 1535 1532 1529 1526 1524 1523 1520 1505 1512 1512 1513 1514 1514 1514 1513 1512 1511 1509 1508 1507 1506 1505 1505 1505 1506 1506 1506 1507 1508 1509 1510 1511 1512 1513 1514 1516 1517 1519 1521 1523 1525 1527 1530 1532 1534 1536 1538 1540
1538 1534 1529 1527 1524 1521 1519 1517 1504 1511 1513 1512 1513 1513 1512 1512 1510 1508 1507 1506 1505 1504 1503 1503 1503 1502 1503 1504 1504 1505 1505 1506 1507 1508 1509 1510 1511 1513 1515 1517 1519 1521 1523 1525 1528 1530 1532 1534 1537
1538 1532 1520 1515 1512 1508 1521 1519 1513 1514 1516 1516 1514 1513 1511 1510 1509 1507 1505 1504 1503 1501 1500 1500 1499 1499 1500 1500 1500 1501 1502 1503 1504 1504 1505 1506 1507 1508 1510 1512 1514 1516 1518 1520 1523 1526 1528 1530 1532
1540 1537 1528 1519 1508 1505 1520 1515 1511 1517 1517 1516 1515 1513 1511 1509 1508 1506 1504 1502 1500 1499 1498 1497 1497 1497 1497 1498 1498 1498 1499 1500 1500 1501 1501 1501 1502 1504 1506 1507 1509 1511 1513 1515 1518 1521 1523 1526 1528
1540 1538 1541 1536 1531 1523 1510 1511 1513 1515 1515 1514 1513 1512 1510 1509 1507 1504 1503 1500 1498 1497 1496 1495 1495 1494 1494 1495 1495 1495 1496 1496 1496 1497 1497 1498 1499 1500 1502 1503 1504 1506 1508 1510 1513 1515 1518 1520 1523
1546 1544 1541 1535 1524 1511 1505 1508 1507 1513 1512 1513 1512 1511 1509 1508 1506 1503 1501 1499 1497 1496 1494 1493 1492 1492 1491 1491 1492 1492 1492 1492 1492 1492 1494 1494 1495 1496 1497 1498 1500 1501 1503 1505 1507 1509 1512 1515 1517
1547 1547 1543 1537 1533 1519 1507 1505 1512 1513 1513 1513 1512 1511 1509 1507 1505 1502 1500 1497 1495 1494 1492 1490 1489 1489 1488 1488 1487 1488 1487 1488 1489 1489 1490 1491 1491 1492 1493 1494 1496 1497 1498 1500 1502 1504 1506 1509 1512
1547 1545 1543 1535 1533 1532 1519 1513 1515 1516 1515 1514 1512 1510 1508 1506 1503 1501 1498 1495 1493 1491 1490 1488 1487 1486 1485 1484 1484 1484 1484 1484 1485 1485 1486 1487 1488 1489 1489 1490 1491 1492 1494 1495 1497 1499 1501 1503 1505